User: anonymous   Login
Location: Unspecified
(0.0000°N, 0.0000°E)
Time: 17:22:09
(UTC+00:00)
Language:

NAVSTAR 64 (USA 206) - Orbit

View from above orbital plane
View from above orbital plane
View from above satellite
View from above satellite

Ground track
Ground track

The orbit data is extracted from the following two-line orbital elements,

1 35752U 09043A   18109.74580000  .00000044  00000-0  00000+0 0  9998
2 35752  54.3049 147.0811 0051769  32.7738  76.4499  2.00562008 63561
Epoch (UTC): 19 April 2018 17:53:57
Eccentricity: 0.0051769
inclination: 54.3049°
perigee height: 20044 km
apogee height: 20319 km
right ascension of ascending node: 147.0811°
argument of perigee: 32.7738°
revolutions per day: 2.00562008
mean anomaly at epoch: 76.4499°
orbit number at epoch: 6356

The dashed part of the orbit path shows where the satellite is in the earth's shadow,  

DLR